Weather in Prudnik

Poland     50°19′23″N   17°34′53″E
temp.,
°C
wind,
m/s
gust,
m/s
humid.,
%
clouds,
%
prec.,
mm/h
press.,
hPa
HPBL,
m
17 june, thu
thu1723:00+17s22795 0.0 101919
02:00+16s22800 0.0 101920
05:00+15s22775 0.0 101818
08:00+21ese23635 0.0 1018278
11:00+24e44560 0.0 1019903
14:00+25ese54514 0.0 10181214
17:00+25ese445515 0.0 10181125
20:00+21sse337312 0.0 101859
18 june, fri
fri1823:00+17s338451 0.0 101947
02:00+16ssw22800 0.0 101815
05:00+16ssw22760 0.0 101815
08:00+23se01620 0.0 1018310
11:00+26ese33500 0.0 10171466
14:00+27se55460 0.0 10171791
17:00+27se44510 0.0 10161386
20:00+23sse33730 0.0 101645
19 june, sat
sat1923:00+19s23790 0.0 101834
02:00+18ssw22740 0.0 101716
05:00+18sw21740 0.0 101714
08:00+24se11600 0.0 1017263
11:00+27e22470 0.0 10161417
14:00+29e334455 0.0 10151919
17:00+28ne224937 0.0 10151520
20:00+24ne117271 0.3 101415
20 june, sun
sun2023:00+20ssw2284100 1.6 101515
02:00+17wnw229585 2.8 101640
05:00+18wnw119093 0.0 101512
08:00+21nne11815 0.0 1015218
11:00+26e22623 0.0 1014970
14:00+28ese44546 0.1 10121596
17:00+28sse335252 0.1 10111593
20:00+24sse22743 0.2 101031
21 june, mon
mon2123:00+20s33820 0.0 101140
02:00+20ssw3379100 0.1 101138
05:00+19s3383100 0.4 101043
08:00+23s267351 0.6 1011454
11:00+25s127173 3.9 1011310
14:00+24nnw1175100 9.0 1011375
17:00+24n0180100 1.9 1011147
20:00+21se119079 5.6 101121